Weather History for Kalispell, MT

Change the Weather History Date:

Thursday, December 6, 2012

  Actual Average Record
Temperature  
Mean Temperature 30 °F 24 °F  
Max Temperature 34 °F 31 °F 51 °F (1944)
Min Temperature 25 °F 18 °F -16 °F (2005)
Degree Days  
Heating Degree Days 35 41  
Month to date heating degree days 162 239  
Since 1 July heating degree days 2142 2443  
Cooling Degree Days 0 0  
Month to date cooling degree days 0 0  
Year to date cooling degree days 192 147  
Moisture  
Dew Point 27 °F    
Average Humidity 85    
Maximum Humidity 100    
Minimum Humidity 69    
Precipitation  
Precipitation 0.01 in 0.05 in 0.58 in (1977)
Month to date precipitation 0.51 0.30  
Year to date precipitation 19.65 15.73  
Snow  
Snow 0.00 in - - ()
Month to date snowfall 0.0  
Year to date snowfall 27.4  
Since 1 July snowfall 2.3  
Snow Depth 0.00 in    
Sea Level Pressure  
Sea Level Pressure 30.02 in    
Wind  
Wind Speed 8 mph (SSE)    
Max Wind Speed 15 mph    
Max Gust Speed 20 mph    
Visibility 8 miles    
Events Snow    
T = Trace of Precipitation, MM = Missing Value Source: NWS Daily Summary

Daily Weather History Graph

Daily Weather History Graph

Search for Another Location

Airport:

Trip Planner

Search our weather history database for the weather conditions in past years. The results will help you decide how hot, cold, wet, or windy it might be!

Date:

Astronomy

Dec. 06, 2012 Rise Set
Actual Time 8:13 AM MST 4:43 PM MST
Civil Twilight 7:37 AM MST 5:19 PM MST
Nautical Twilight 6:57 AM MST 5:58 PM MST
Astronomical Twilight 6:19 AM MST 6:36 PM MST
Moon 12:02 AM MST (12/6) 12:40 PM MST (12/6)
Length of Visible Light 9h 41m
Length of Day
8h 29m
Waning Gibbous, 48% of the Moon is Illuminated
Dec 6
Waning Gibbous
Dec 13
New
Dec 19
First Quarter
Dec 28
Full
Jan 4
Last Quarter

Hourly Weather History & Observations

Time (MST) Temp. Windchill Dew Point Humidity Pressure Visibility Wind Dir Wind Speed Gust Speed Precip Events Conditions
12:55 AM 26.1 °F 21.9 °F 19.9 °F 78% 30.14 in 10.0 mi South 3.5 mph - N/A   Clear
1:55 AM 27.0 °F 19.5 °F 19.0 °F 72% 30.13 in 10.0 mi South 6.9 mph - N/A   Clear
2:55 AM 28.9 °F 22.8 °F 19.9 °F 69% 30.13 in 10.0 mi South 5.8 mph - N/A   Scattered Clouds
3:55 AM 30.0 °F 26.5 °F 21.0 °F 69% 30.12 in 10.0 mi SSW 3.5 mph - N/A   Overcast
4:55 AM 30.0 °F - 23.0 °F 75% 30.13 in 10.0 mi Calm Calm - N/A   Overcast
5:55 AM 30.0 °F - 23.0 °F 75% 30.11 in 10.0 mi Calm Calm - N/A   Overcast
6:55 AM 28.9 °F 25.2 °F 23.0 °F 78% 30.11 in 10.0 mi South 3.5 mph - N/A   Overcast
7:55 AM 30.9 °F 26.2 °F 24.1 °F 76% 30.11 in 10.0 mi South 4.6 mph - N/A   Overcast
8:55 AM 30.0 °F 25.2 °F 25.0 °F 82% 30.11 in 10.0 mi SSW 4.6 mph - 0.00 in Snow Light Snow
9:55 AM 30.9 °F 22.8 °F 28.0 °F 89% 30.12 in 2.5 mi SE 9.2 mph - 0.00 in Snow Light Snow
10:12 AM 30.2 °F 21.9 °F 28.4 °F 93% 30.02 in 6.0 mi SE 9.2 mph - 0.00 in Snow Light Snow
10:55 AM 32.0 °F 26.4 °F 28.0 °F 85% 30.11 in 10.0 mi South 5.8 mph - 0.00 in   Overcast
11:12 AM 32.0 °F 24.2 °F 28.4 °F 87% 30.02 in 10.0 mi SSE 9.2 mph 18.4 mph N/A   Overcast
11:55 AM 33.1 °F 24.9 °F 28.9 °F 85% 30.08 in 10.0 mi SE 10.4 mph - 0.00 in Snow Light Snow
12:08 PM 33.8 °F 26.4 °F 28.4 °F 81% 29.99 in 9.0 mi SE 9.2 mph - 0.00 in Snow Light Snow
12:55 PM 33.1 °F 25.5 °F 28.0 °F 82% 30.06 in 9.0 mi SE 9.2 mph - 0.00 in Snow Light Snow
1:55 PM 34.0 °F 26.0 °F 27.0 °F 75% 30.04 in 10.0 mi SSE 10.4 mph - 0.00 in   Overcast
2:55 PM 34.0 °F 25.5 °F 27.0 °F 75% 30.02 in 10.0 mi SSE 11.5 mph - N/A   Overcast
3:55 PM 33.1 °F 24.4 °F 27.0 °F 78% 30.01 in 10.0 mi SSE 11.5 mph - N/A   Overcast
4:55 PM 33.1 °F 25.5 °F 27.0 °F 78% 30.01 in 10.0 mi SSE 9.2 mph - N/A   Overcast
5:55 PM 33.8 °F 25.3 °F 28.4 °F 81% 29.92 in 9.0 mi SSE 11.5 mph - N/A Snow Light Snow
6:29 PM 32.0 °F 23.6 °F 28.4 °F 87% 29.92 in 10.0 mi SSE 10.4 mph - 0.00 in Snow Light Snow
6:52 PM 30.2 °F 21.3 °F 28.4 °F 93% 29.92 in 8.0 mi SSE 10.4 mph - 0.00 in Snow Light Snow
6:55 PM 30.9 °F 22.2 °F 28.9 °F 92% 30.00 in 8.0 mi SSE 10.4 mph - 0.00 in Snow Light Snow
7:55 PM 30.9 °F 21.2 °F 28.9 °F 92% 29.99 in 3.0 mi SSE 12.7 mph - 0.00 in Snow Light Snow
8:55 PM 30.9 °F 21.7 °F 28.9 °F 92% 29.98 in 2.5 mi SSE 11.5 mph - 0.00 in Snow Light Snow
9:07 PM 30.2 °F 20.8 °F 28.4 °F 93% 29.89 in 2.5 mi SSE 11.5 mph - 0.00 in Snow Light Snow
9:14 PM 30.2 °F 20.2 °F 28.4 °F 93% 29.89 in 2.5 mi SSE 12.7 mph - 0.00 in Snow Light Snow
9:55 PM 30.9 °F 21.7 °F 30.0 °F 96% 29.96 in 2.0 mi SSE 11.5 mph - 0.01 in Snow Light Snow
10:36 PM 30.2 °F 20.8 °F 30.2 °F 100% 29.87 in 9.0 mi SSE 11.5 mph - 0.00 in Snow Light Snow
10:55 PM 30.9 °F 22.8 °F 30.0 °F 96% 29.94 in 6.0 mi SSE 9.2 mph - 0.00 in Snow Light Snow
11:55 PM 32.0 °F 24.8 °F 30.0 °F 92% 29.93 in 10.0 mi South 8.1 mph - 0.00 in   Overcast